Time,TemperatureF,DewpointF,PressureIn,WindDirection,WindDirectionDegrees,WindSpeedMPH,WindSpeedGustMPH,Humidity,HourlyPrecipIn,Conditions,Clouds,dailyrainin,SoftwareType,DateUTC
2013-05-14 00:01:00,39.9,15.1,29.14,NE,45,0.0,0.0,36,0.04,,---,0.00,VWS V13.01,2013-05-14 04:01:00,
2013-05-14 00:02:00,39.9,15.1,29.14,NE,45,0.0,0.0,36,0.04,,---,0.25,VWS V13.01,2013-05-14 04:02:00,
2013-05-14 00:12:00,39.2,15.7,29.12,NE,45,0.0,0.0,38,0.00,,---,0.00,VWS V13.01,2013-05-14 04:12:00,
2013-05-14 00:13:00,39.2,15.7,29.12,NE,45,0.0,0.0,38,0.00,,---,0.00,VWS V13.01,2013-05-14 04:13:00,
2013-05-14 00:18:00,39.4,16.5,29.12,NE,45,0.0,0.0,39,0.00,,---,0.00,VWS V13.01,2013-05-14 04:18:00,
2013-05-14 00:19:00,39.2,16.3,29.12,NE,45,0.0,0.0,39,0.00,,---,0.00,VWS V13.01,2013-05-14 04:19:00,
2013-05-14 00:24:00,39.2,16.3,29.12,NE,45,0.0,0.0,39,0.00,,---,0.00,VWS V13.01,2013-05-14 04:24:00,
2013-05-14 00:29:00,39.2,16.3,29.12,NE,45,0.0,0.0,39,0.00,,---,0.00,VWS V13.01,2013-05-14 04:29:00,
2013-05-14 00:34:00,39.0,16.8,29.12,NE,45,0.0,0.0,40,0.00,,---,0.00,VWS V13.01,2013-05-14 04:34:00,
2013-05-14 00:39:00,38.8,16.6,29.12,NE,45,0.0,0.0,40,0.00,,---,0.00,VWS V13.01,2013-05-14 04:39:00,
2013-05-14 00:44:00,38.5,16.3,29.12,NE,45,0.0,0.0,40,0.00,,---,0.00,VWS V13.01,2013-05-14 04:44:00,
2013-05-14 00:49:00,38.1,16.5,29.12,NE,45,0.0,0.0,41,0.00,,---,0.00,VWS V13.01,2013-05-14 04:49:00,
2013-05-14 00:54:00,37.8,16.8,29.12,NE,45,0.0,0.0,42,0.00,,---,0.00,VWS V13.01,2013-05-14 04:54:00,
2013-05-14 00:59:00,37.6,17.1,29.12,NE,45,0.0,0.0,43,0.00,,---,0.00,VWS V13.01,2013-05-14 04:59:00,
2013-05-14 01:04:00,37.4,17.0,29.12,NE,45,0.0,0.0,43,0.00,,---,0.00,VWS V13.01,2013-05-14 05:04:00,
2013-05-14 01:09:00,37.4,17.0,29.12,NE,45,0.0,0.0,43,0.00,,---,0.00,VWS V13.01,2013-05-14 05:09:00,
2013-05-14 01:14:00,37.4,17.5,29.12,NE,45,0.0,0.0,44,0.00,,---,0.00,VWS V13.01,2013-05-14 05:14:00,
2013-05-14 01:19:00,37.0,17.2,29.12,NE,45,0.0,0.0,44,0.00,,---,0.00,VWS V13.01,2013-05-14 05:19:00,
2013-05-14 01:24:00,36.9,17.0,29.12,NE,45,0.0,0.0,44,0.00,,---,0.00,VWS V13.01,2013-05-14 05:24:00,
2013-05-14 01:29:00,36.9,17.0,29.12,NE,45,0.0,0.0,44,0.00,,---,0.00,VWS V13.01,2013-05-14 05:29:00,
2013-05-14 01:35:00,36.7,17.4,29.12,NE,45,0.0,0.0,45,0.00,,---,0.00,VWS V13.01,2013-05-14 05:35:00,
2013-05-14 01:40:00,36.7,17.4,29.12,NE,45,0.0,0.0,45,0.00,,---,0.00,VWS V13.01,2013-05-14 05:40:00,
2013-05-14 01:45:00,36.7,17.4,29.12,NE,45,0.0,0.0,45,0.00,,---,0.00,VWS V13.01,2013-05-14 05:45:00,
2013-05-14 01:50:00,36.5,16.7,29.12,NE,45,0.0,0.0,44,0.00,,---,0.00,VWS V13.01,2013-05-14 05:50:00,
2013-05-14 01:55:00,36.5,16.7,29.12,NE,45,0.0,0.0,44,0.00,,---,0.00,VWS V13.01,2013-05-14 05:55:00,
2013-05-14 02:00:00,36.5,17.2,29.12,NE,45,0.0,0.0,45,0.00,,---,0.00,VWS V13.01,2013-05-14 06:00:00,
2013-05-14 02:05:00,36.3,17.0,29.12,NE,45,0.0,0.0,45,0.00,,---,0.00,VWS V13.01,2013-05-14 06:05:00,
2013-05-14 02:10:00,36.1,17.4,29.12,NE,45,0.0,0.0,46,0.00,,---,0.00,VWS V13.01,2013-05-14 06:10:00,
2013-05-14 02:15:00,36.0,17.2,29.12,NE,45,0.0,0.0,46,0.00,,---,0.00,VWS V13.01,2013-05-14 06:15:00,
2013-05-14 02:20:00,35.8,17.0,29.12,NE,45,0.0,0.0,46,0.00,,---,0.00,VWS V13.01,2013-05-14 06:20:00,
2013-05-14 02:25:00,35.4,17.7,29.12,NE,45,0.0,0.0,48,0.00,,---,0.00,VWS V13.01,2013-05-14 06:25:00,
2013-05-14 02:30:00,35.4,18.2,29.12,NE,45,0.0,0.0,49,0.00,,---,0.00,VWS V13.01,2013-05-14 06:30:00,
2013-05-14 02:35:00,35.1,18.8,29.12,NE,45,0.0,0.0,51,0.00,,---,0.00,VWS V13.01,2013-05-14 06:35:00,
2013-05-14 02:40:00,35.1,18.8,29.12,NE,45,0.0,0.0,51,0.00,,---,0.00,VWS V13.01,2013-05-14 06:40:00,
2013-05-14 02:45:00,34.5,18.7,29.12,NE,45,0.0,0.0,52,0.00,,---,0.00,VWS V13.01,2013-05-14 06:45:00,
2013-05-14 02:51:00,34.5,19.2,29.12,NE,45,0.0,0.0,53,0.00,,---,0.00,VWS V13.01,2013-05-14 06:51:00,
2013-05-14 02:56:00,34.3,19.4,29.12,NE,45,0.0,0.0,54,0.00,,---,0.00,VWS V13.01,2013-05-14 06:56:00,
2013-05-14 03:01:00,34.2,19.3,29.12,NE,45,0.0,0.0,54,0.00,,---,0.00,VWS V13.01,2013-05-14 07:01:00,
2013-05-14 03:06:00,34.0,19.5,29.12,NE,45,0.0,0.0,55,0.00,,---,0.00,VWS V13.01,2013-05-14 07:06:00,
2013-05-14 03:11:00,34.0,20.0,29.12,NE,45,0.0,0.0,56,0.00,,---,0.00,VWS V13.01,2013-05-14 07:11:00,
2013-05-14 03:16:00,34.0,20.4,29.12,NE,45,0.0,0.0,57,0.00,,---,0.00,VWS V13.01,2013-05-14 07:16:00,
2013-05-14 03:21:00,34.0,20.8,29.12,NE,45,0.0,0.0,58,0.00,,---,0.00,VWS V13.01,2013-05-14 07:21:00,
2013-05-14 03:26:00,34.0,21.2,29.12,NE,45,0.0,0.0,59,0.00,,---,0.00,VWS V13.01,2013-05-14 07:26:00,
2013-05-14 03:31:00,34.0,21.6,29.12,NE,45,0.0,0.0,60,0.00,,---,0.00,VWS V13.01,2013-05-14 07:31:00,
2013-05-14 03:36:00,34.0,21.6,29.12,NE,45,0.0,0.0,60,0.00,,---,0.00,VWS V13.01,2013-05-14 07:36:00,
2013-05-14 03:41:00,33.8,21.8,29.12,NE,45,0.0,0.0,61,0.00,,---,0.00,VWS V13.01,2013-05-14 07:41:00,
2013-05-14 03:46:00,34.0,22.7,29.12,NE,45,0.0,0.0,63,0.00,,---,0.00,VWS V13.01,2013-05-14 07:46:00,
2013-05-14 03:51:00,34.0,23.5,29.12,NE,45,0.0,0.0,65,0.00,,---,0.00,VWS V13.01,2013-05-14 07:51:00,
2013-05-14 03:56:00,34.0,23.8,29.12,NE,45,0.0,0.0,66,0.00,,---,0.00,VWS V13.01,2013-05-14 07:56:00,
2013-05-14 04:01:00,34.0,24.5,29.12,NE,45,0.0,0.0,68,0.00,,---,0.00,VWS V13.01,2013-05-14 08:01:00,
2013-05-14 04:07:00,33.8,24.7,29.12,NE,45,0.0,0.0,69,0.00,,---,0.00,VWS V13.01,2013-05-14 08:07:00,
2013-05-14 04:12:00,33.6,25.2,29.12,NE,45,0.0,0.0,71,0.00,,---,0.00,VWS V13.01,2013-05-14 08:12:00,
2013-05-14 04:17:00,33.6,25.6,29.12,NE,45,0.0,0.0,72,0.00,,---,0.00,VWS V13.01,2013-05-14 08:17:00,
2013-05-14 04:22:00,33.3,25.6,29.12,NE,45,0.0,0.0,73,0.00,,---,0.00,VWS V13.01,2013-05-14 08:22:00,
2013-05-14 04:27:00,33.3,25.9,29.12,NE,45,0.0,0.0,74,0.00,,---,0.00,VWS V13.01,2013-05-14 08:27:00,
2013-05-14 04:32:00,33.3,26.2,29.12,NE,45,0.0,0.0,75,0.00,,---,0.00,VWS V13.01,2013-05-14 08:32:00,
2013-05-14 04:37:00,33.1,26.4,29.12,NE,45,0.0,0.0,76,0.00,,---,0.00,VWS V13.01,2013-05-14 08:37:00,
2013-05-14 04:42:00,33.1,26.7,29.12,NE,45,0.0,0.0,77,0.00,,---,0.00,VWS V13.01,2013-05-14 08:42:00,
2013-05-14 04:47:00,32.9,26.8,29.12,NE,45,0.0,0.0,78,0.00,,---,0.00,VWS V13.01,2013-05-14 08:47:00,
2013-05-14 04:52:00,32.9,27.1,29.12,NE,45,0.0,0.0,79,0.00,,---,0.00,VWS V13.01,2013-05-14 08:52:00,
2013-05-14 04:57:00,32.7,27.2,29.12,NE,45,0.0,0.0,80,0.00,,---,0.00,VWS V13.01,2013-05-14 08:57:00,
2013-05-14 05:02:00,32.7,27.2,29.12,NE,45,0.0,0.0,80,0.00,,---,0.00,VWS V13.01,2013-05-14 09:02:00,
2013-05-14 05:07:00,32.7,27.5,29.12,NE,45,0.0,0.0,81,0.00,,---,0.00,VWS V13.01,2013-05-14 09:07:00,
2013-05-14 05:12:00,32.7,27.8,29.12,NE,45,0.0,0.0,82,0.00,,---,0.00,VWS V13.01,2013-05-14 09:12:00,
2013-05-14 05:17:00,32.7,28.1,29.12,NE,45,0.0,0.0,83,0.00,,---,0.00,VWS V13.01,2013-05-14 09:17:00,
2013-05-14 05:22:00,32.7,28.1,29.12,NE,45,0.0,0.0,83,0.00,,---,0.00,VWS V13.01,2013-05-14 09:22:00,
2013-05-14 05:27:00,32.5,28.0,29.12,NE,45,0.0,0.0,83,0.00,,---,0.00,VWS V13.01,2013-05-14 09:27:00,
2013-05-14 05:33:00,32.5,28.2,29.12,NE,45,0.0,0.0,84,0.00,,---,0.00,VWS V13.01,2013-05-14 09:33:00,
2013-05-14 05:38:00,32.4,28.1,29.12,NE,45,0.0,0.0,84,0.00,,---,0.00,VWS V13.01,2013-05-14 09:38:00,
2013-05-14 05:43:00,32.4,28.1,29.12,NE,45,0.0,0.0,84,0.00,,---,0.00,VWS V13.01,2013-05-14 09:43:00,
2013-05-14 05:48:00,32.4,28.1,29.12,NE,45,0.0,0.0,84,0.00,,---,0.00,VWS V13.01,2013-05-14 09:48:00,
2013-05-14 05:53:00,32.4,28.4,29.14,NE,45,0.0,0.0,85,0.00,,---,0.00,VWS V13.01,2013-05-14 09:53:00,
2013-05-14 05:58:00,32.4,28.4,29.14,NE,45,0.0,0.0,85,0.00,,---,0.00,VWS V13.01,2013-05-14 09:58:00,
2013-05-14 06:03:00,32.4,28.4,29.14,NE,45,0.0,0.0,85,0.00,,---,0.00,VWS V13.01,2013-05-14 10:03:00,
2013-05-14 06:08:00,32.4,28.4,29.14,NE,45,0.0,0.0,85,0.00,,---,0.00,VWS V13.01,2013-05-14 10:08:00,
2013-05-14 06:13:00,32.4,28.6,29.12,NE,45,0.0,0.0,86,0.00,,---,0.00,VWS V13.01,2013-05-14 10:13:00,
2013-05-14 06:18:00,32.4,28.6,29.12,NE,45,0.0,0.0,86,0.00,,---,0.00,VWS V13.01,2013-05-14 10:18:00,
2013-05-14 06:23:00,32.4,28.6,29.12,NE,45,0.0,0.0,86,0.00,,---,0.00,VWS V13.01,2013-05-14 10:23:00,
2013-05-14 06:28:00,32.4,28.6,29.12,NE,45,0.0,0.0,86,0.00,,---,0.00,VWS V13.01,2013-05-14 10:28:00,
2013-05-14 06:33:00,32.4,28.9,29.12,NE,45,0.0,0.0,87,0.00,,---,0.00,VWS V13.01,2013-05-14 10:33:00,
2013-05-14 06:38:00,32.4,28.9,29.12,NE,45,0.0,0.0,87,0.00,,---,0.00,VWS V13.01,2013-05-14 10:38:00,
2013-05-14 06:43:00,32.4,28.9,29.12,NE,45,0.0,0.0,87,0.00,,---,0.00,VWS V13.01,2013-05-14 10:43:00,
2013-05-14 06:48:00,32.4,28.9,29.12,NE,45,0.0,0.0,87,0.00,,---,0.00,VWS V13.01,2013-05-14 10:48:00,
2013-05-14 06:54:00,32.4,28.9,29.14,NE,45,0.0,0.0,87,0.00,,---,0.00,VWS V13.01,2013-05-14 10:54:00,
2013-05-14 06:59:00,32.4,28.9,29.14,NE,45,0.0,0.0,87,0.00,,---,0.00,VWS V13.01,2013-05-14 10:59:00,
2013-05-14 07:04:00,32.4,28.9,29.14,NE,45,0.0,0.0,87,0.00,,---,0.00,VWS V13.01,2013-05-14 11:04:00,
2013-05-14 07:09:00,32.5,29.1,29.12,NE,45,0.0,0.0,87,0.00,,---,0.00,VWS V13.01,2013-05-14 11:09:00,
2013-05-14 07:14:00,32.7,29.6,29.12,NE,45,0.0,0.0,88,0.00,,---,0.00,VWS V13.01,2013-05-14 11:14:00,
2013-05-14 07:19:00,32.7,29.6,29.12,NE,45,0.0,0.0,88,0.00,,---,0.00,VWS V13.01,2013-05-14 11:19:00,
2013-05-14 07:24:00,33.1,29.9,29.12,NE,45,0.0,0.0,88,0.00,,---,0.00,VWS V13.01,2013-05-14 11:24:00,
2013-05-14 07:29:00,33.3,30.1,29.12,NE,45,0.0,0.0,88,0.00,,---,0.00,VWS V13.01,2013-05-14 11:29:00,
2013-05-14 07:34:00,33.8,30.6,29.12,NE,45,0.0,0.0,88,0.00,,---,0.00,VWS V13.01,2013-05-14 11:34:00,
2013-05-14 07:39:00,34.0,30.8,29.14,NE,45,0.0,0.0,88,0.00,,---,0.00,VWS V13.01,2013-05-14 11:39:00,
2013-05-14 07:45:00,34.7,31.5,29.14,NE,45,0.0,0.0,88,0.00,,---,0.00,VWS V13.01,2013-05-14 11:45:00,
2013-05-14 07:50:00,34.9,31.7,29.14,NE,45,0.0,0.0,88,0.00,,---,0.00,VWS V13.01,2013-05-14 11:50:00,
2013-05-14 07:55:00,35.4,32.2,29.12,NE,45,0.0,0.0,88,0.00,,---,0.00,VWS V13.01,2013-05-14 11:55:00,
2013-05-14 08:00:00,35.6,32.4,29.12,NE,45,0.0,0.0,88,0.00,,---,0.00,VWS V13.01,2013-05-14 12:00:00,
2013-05-14 08:05:00,35.6,32.4,29.12,NE,45,0.0,0.0,88,0.00,,---,0.00,VWS V13.01,2013-05-14 12:05:00,
2013-05-14 08:10:00,36.0,32.8,29.12,NE,45,0.0,0.0,88,0.00,,---,0.00,VWS V13.01,2013-05-14 12:10:00,
2013-05-14 08:16:00,36.1,32.9,29.12,NE,45,0.0,0.0,88,0.00,,---,0.00,VWS V13.01,2013-05-14 12:16:00,
2013-05-14 08:21:00,36.3,32.8,29.12,NE,45,0.0,0.0,87,0.00,,---,0.00,VWS V13.01,2013-05-14 12:21:00,
2013-05-14 08:26:00,36.7,33.2,29.14,NE,45,0.0,0.0,87,0.00,,---,0.00,VWS V13.01,2013-05-14 12:26:00,
2013-05-14 08:31:00,37.2,33.7,29.14,NE,45,0.0,0.0,87,0.00,,---,0.00,VWS V13.01,2013-05-14 12:31:00,
2013-05-14 08:36:00,37.8,34.2,29.14,NE,45,0.0,0.0,87,0.00,,---,0.00,VWS V13.01,2013-05-14 12:36:00,
2013-05-14 08:41:00,38.5,34.7,29.14,SW,225,0.0,0.0,86,0.00,,---,0.00,VWS V13.01,2013-05-14 12:41:00,
2013-05-14 08:46:00,39.4,34.7,29.14,SW,225,0.0,0.0,83,0.00,,---,0.00,VWS V13.01,2013-05-14 12:46:00,
2013-05-14 08:51:00,39.7,34.7,29.14,SW,225,0.0,0.0,82,0.00,,---,0.00,VWS V13.01,2013-05-14 12:51:00,
2013-05-14 08:56:00,40.5,33.2,29.14,SW,225,0.0,0.0,75,0.00,,---,0.00,VWS V13.01,2013-05-14 12:56:00,
2013-05-14 09:01:00,40.6,29.8,29.14,SW,225,0.0,0.0,65,0.00,,---,0.00,VWS V13.01,2013-05-14 13:01:00,
2013-05-14 09:07:00,41.0,28.6,29.14,SW,225,0.0,0.0,61,0.00,,---,0.00,VWS V13.01,2013-05-14 13:07:00,
2013-05-14 09:12:00,41.0,28.6,29.14,SW,225,0.0,0.0,61,0.00,,---,0.00,VWS V13.01,2013-05-14 13:12:00,
2013-05-14 09:17:00,41.9,25.6,29.14,SW,225,0.0,0.0,52,0.00,,---,0.00,VWS V13.01,2013-05-14 13:17:00,
2013-05-14 09:22:00,42.4,25.1,29.14,SW,225,0.0,0.0,50,0.00,,---,0.00,VWS V13.01,2013-05-14 13:22:00,
2013-05-14 09:27:00,43.0,25.6,29.14,SW,225,0.0,0.0,50,0.00,,---,0.00,VWS V13.01,2013-05-14 13:27:00,
2013-05-14 09:32:00,43.5,25.1,29.14,SW,225,0.0,0.0,48,0.00,,---,0.00,VWS V13.01,2013-05-14 13:32:00,
2013-05-14 09:37:00,43.9,25.0,29.14,SW,225,0.0,0.0,47,0.00,,---,0.00,VWS V13.01,2013-05-14 13:37:00,
2013-05-14 09:42:00,44.4,25.0,29.12,SW,225,0.0,0.0,46,0.00,,---,0.00,VWS V13.01,2013-05-14 13:42:00,
2013-05-14 09:47:00,44.8,25.3,29.12,SW,225,0.0,0.0,46,0.00,,---,0.00,VWS V13.01,2013-05-14 13:47:00,
2013-05-14 09:52:00,45.7,25.0,29.12,SW,225,0.0,0.0,44,0.00,,---,0.00,VWS V13.01,2013-05-14 13:52:00,
2013-05-14 09:57:00,46.2,25.0,29.12,SW,225,0.0,0.0,43,0.00,,---,0.00,VWS V13.01,2013-05-14 13:57:00,
2013-05-14 10:02:00,47.1,24.6,29.12,SW,225,0.0,0.0,41,0.00,,---,0.00,VWS V13.01,2013-05-14 14:02:00,
2013-05-14 10:07:00,47.5,23.8,29.12,SW,225,0.0,0.0,39,0.00,,---,0.00,VWS V13.01,2013-05-14 14:07:00,
2013-05-14 10:12:00,47.8,23.5,29.12,SW,225,0.0,0.0,38,0.00,,---,0.00,VWS V13.01,2013-05-14 14:12:00,
2013-05-14 10:18:00,48.4,23.3,29.12,SSW,202,0.0,0.0,37,0.00,,---,0.00,VWS V13.01,2013-05-14 14:18:00,
2013-05-14 10:23:00,48.6,21.5,29.12,SW,225,0.0,0.0,34,0.00,,---,0.00,VWS V13.01,2013-05-14 14:23:00,
2013-05-14 10:28:00,48.9,22.5,29.12,SW,225,0.0,0.0,35,0.00,,---,0.00,VWS V13.01,2013-05-14 14:28:00,
2013-05-14 10:33:00,49.3,22.8,29.12,SW,225,0.0,0.0,35,0.00,,---,0.00,VWS V13.01,2013-05-14 14:33:00,
2013-05-14 10:38:00,49.6,21.0,29.12,South,180,0.0,0.0,32,0.00,,---,0.00,VWS V13.01,2013-05-14 14:38:00,
2013-05-14 10:43:00,50.0,19.0,29.12,South,180,0.0,0.0,29,0.00,,---,0.00,VWS V13.01,2013-05-14 14:43:00,
2013-05-14 10:48:00,50.5,19.5,29.12,South,180,0.0,0.0,29,0.00,,---,0.00,VWS V13.01,2013-05-14 14:48:00,
2013-05-14 10:53:00,51.1,19.1,29.12,South,180,0.0,0.0,28,0.00,,---,0.00,VWS V13.01,2013-05-14 14:53:00,
2013-05-14 10:58:00,50.9,18.1,29.12,South,180,0.0,0.0,27,0.00,,---,0.00,VWS V13.01,2013-05-14 14:58:00,
2013-05-14 11:03:00,51.8,19.8,29.12,NW,315,0.0,0.0,28,0.00,,---,0.00,VWS V13.01,2013-05-14 15:03:00,
2013-05-14 11:08:00,52.0,19.1,29.12,NW,315,0.0,0.0,27,0.00,,---,0.00,VWS V13.01,2013-05-14 15:08:00,
2013-05-14 11:13:00,52.2,18.3,29.12,WNW,292,0.0,0.0,26,0.00,,---,0.00,VWS V13.01,2013-05-14 15:13:00,
2013-05-14 11:18:00,52.7,18.8,29.12,NNE,22,0.0,0.0,26,0.00,,---,0.00,VWS V13.01,2013-05-14 15:18:00,
2013-05-14 11:23:00,52.7,18.8,29.12,SW,225,0.0,0.0,26,0.00,,---,0.00,VWS V13.01,2013-05-14 15:23:00,
2013-05-14 11:28:00,54.1,19.1,29.12,South,180,0.0,0.0,25,0.00,,---,0.00,VWS V13.01,2013-05-14 15:28:00,
2013-05-14 11:33:00,54.3,19.3,29.12,NW,315,0.0,0.0,25,0.00,,---,0.00,VWS V13.01,2013-05-14 15:33:00,
2013-05-14 11:38:00,54.1,17.2,29.09,NW,315,0.0,0.0,23,0.00,,---,0.00,VWS V13.01,2013-05-14 15:38:00,
2013-05-14 11:44:00,54.9,17.8,29.09,West,270,0.0,0.0,23,0.00,,---,0.00,VWS V13.01,2013-05-14 15:44:00,
2013-05-14 11:49:00,55.0,17.9,29.09,South,180,0.0,0.0,23,0.00,,---,0.00,VWS V13.01,2013-05-14 15:49:00,
2013-05-14 11:54:00,55.6,17.4,29.09,South,180,0.0,0.0,22,0.00,,---,0.00,VWS V13.01,2013-05-14 15:54:00,
2013-05-14 11:59:00,56.1,15.6,29.09,WSW,248,0.0,0.0,20,0.00,,---,0.00,VWS V13.01,2013-05-14 15:59:00,
2013-05-14 12:04:00,56.5,15.9,29.09,WSW,248,0.0,0.0,20,0.00,,---,0.00,VWS V13.01,2013-05-14 16:04:00,
2013-05-14 12:09:00,56.5,15.9,29.09,WSW,248,0.0,0.0,20,0.00,,---,0.00,VWS V13.01,2013-05-14 16:09:00,
2013-05-14 12:14:00,56.5,15.9,29.09,WSW,248,0.0,0.0,20,0.00,,---,0.00,VWS V13.01,2013-05-14 16:14:00,
2013-05-14 12:19:00,57.4,15.5,29.09,WSW,248,0.0,0.0,19,0.00,,---,0.00,VWS V13.01,2013-05-14 16:19:00,
2013-05-14 12:24:00,57.6,15.6,29.09,South,180,0.0,0.0,19,0.00,,---,0.00,VWS V13.01,2013-05-14 16:24:00,
2013-05-14 12:29:00,57.7,15.8,29.09,South,180,0.0,0.0,19,0.00,,---,0.00,VWS V13.01,2013-05-14 16:29:00,
2013-05-14 12:34:00,57.7,15.8,29.09,SE,135,0.0,0.0,19,0.00,,---,0.00,VWS V13.01,2013-05-14 16:34:00,
2013-05-14 12:39:00,58.1,16.1,29.09,SE,135,0.0,0.0,19,0.00,,---,0.00,VWS V13.01,2013-05-14 16:39:00,
2013-05-14 12:44:00,58.8,16.7,29.09,NE,45,0.0,0.0,19,0.00,,---,0.00,VWS V13.01,2013-05-14 16:44:00,
2013-05-14 12:50:00,59.4,17.1,29.09,West,270,0.0,0.0,19,0.00,,---,0.00,VWS V13.01,2013-05-14 16:50:00,
2013-05-14 12:55:00,60.1,17.7,29.09,South,180,0.0,0.0,19,0.00,,---,0.00,VWS V13.01,2013-05-14 16:55:00,
2013-05-14 13:00:00,59.9,17.6,29.09,WNW,292,0.0,0.0,19,0.00,,---,0.00,VWS V13.01,2013-05-14 17:00:00,
2013-05-14 13:05:00,59.4,17.1,29.09,NW,315,0.0,0.0,19,0.00,,---,0.00,VWS V13.01,2013-05-14 17:05:00,
2013-05-14 13:10:00,59.9,17.6,29.06,SW,225,0.0,0.0,19,0.00,,---,0.00,VWS V13.01,2013-05-14 17:10:00,
2013-05-14 13:15:00,61.0,18.5,29.06,South,180,0.0,0.0,19,0.00,,---,0.00,VWS V13.01,2013-05-14 17:15:00,
2013-05-14 13:20:00,61.3,18.8,29.06,SW,225,0.0,0.0,19,0.00,,---,0.00,VWS V13.01,2013-05-14 17:20:00,
2013-05-14 13:25:00,62.2,19.5,29.06,East,90,0.0,0.0,19,0.00,,---,0.00,VWS V13.01,2013-05-14 17:25:00,
2013-05-14 13:30:00,62.1,19.3,29.06,South,180,0.0,0.0,19,0.00,,---,0.00,VWS V13.01,2013-05-14 17:30:00,
2013-05-14 13:35:00,61.9,19.2,29.06,North,0,0.0,0.0,19,0.00,,---,0.00,VWS V13.01,2013-05-14 17:35:00,
2013-05-14 13:40:00,61.9,19.2,29.06,NNE,22,0.0,0.0,19,0.00,,---,0.00,VWS V13.01,2013-05-14 17:40:00,
2013-05-14 13:45:00,62.6,18.5,29.06,West,270,0.0,0.0,18,0.00,,---,0.00,VWS V13.01,2013-05-14 17:45:00,
2013-05-14 13:50:00,62.6,18.5,29.06,South,180,0.0,0.0,18,0.00,,---,0.00,VWS V13.01,2013-05-14 17:50:00,
2013-05-14 13:55:00,61.3,18.8,29.06,South,180,0.0,0.0,19,0.00,,---,0.00,VWS V13.01,2013-05-14 17:55:00,
2013-05-14 14:01:00,61.2,18.6,29.06,South,180,0.0,0.0,19,0.00,,---,0.00,VWS V13.01,2013-05-14 18:01:00,
2013-05-14 14:06:00,60.4,18.0,29.06,South,180,0.0,0.0,19,0.00,,---,0.00,VWS V13.01,2013-05-14 18:06:00,
2013-05-14 14:11:00,60.6,18.2,29.06,South,180,0.0,0.0,19,0.00,,---,0.00,VWS V13.01,2013-05-14 18:11:00,
2013-05-14 14:16:00,60.3,17.9,29.06,South,180,0.0,0.0,19,0.00,,---,0.00,VWS V13.01,2013-05-14 18:16:00,
2013-05-14 14:21:00,60.3,17.9,29.06,South,180,0.0,0.0,19,0.00,,---,0.00,VWS V13.01,2013-05-14 18:21:00,
2013-05-14 14:26:00,59.7,17.4,29.06,South,180,0.0,0.0,19,0.00,,---,0.00,VWS V13.01,2013-05-14 18:26:00,
2013-05-14 14:31:00,59.4,17.1,29.06,SSW,202,0.0,0.0,19,0.00,,---,0.00,VWS V13.01,2013-05-14 18:31:00,
2013-05-14 14:36:00,59.4,17.1,29.06,SSW,202,0.0,0.0,19,0.00,,---,0.00,VWS V13.01,2013-05-14 18:36:00,
2013-05-14 14:41:00,59.2,17.0,29.06,SSW,202,0.0,0.0,19,0.00,,---,0.00,VWS V13.01,2013-05-14 18:41:00,
2013-05-14 14:46:00,59.2,17.0,29.06,SSW,202,0.0,0.0,19,0.00,,---,0.00,VWS V13.01,2013-05-14 18:46:00,
2013-05-14 14:51:00,59.2,17.0,29.06,SSW,202,0.0,0.0,19,0.00,,---,0.00,VWS V13.01,2013-05-14 18:51:00,
2013-05-14 14:56:00,59.4,17.1,29.06,SSW,202,0.0,0.0,19,0.00,,---,0.00,VWS V13.01,2013-05-14 18:56:00,
2013-05-14 15:01:00,59.4,17.1,29.06,SSW,202,0.0,0.0,19,0.00,,---,0.00,VWS V13.01,2013-05-14 19:01:00,
2013-05-14 15:06:00,59.5,17.3,29.06,SSW,202,0.0,0.0,19,0.00,,---,0.00,VWS V13.01,2013-05-14 19:06:00,
2013-05-14 15:11:00,59.4,17.1,29.03,SSW,202,0.0,0.0,19,0.00,,---,0.00,VWS V13.01,2013-05-14 19:11:00,
2013-05-14 15:16:00,59.2,17.0,29.03,SSW,202,0.0,0.0,19,0.00,,---,0.00,VWS V13.01,2013-05-14 19:16:00,
2013-05-14 15:22:00,58.8,16.7,29.03,SSW,202,0.0,0.0,19,0.00,,---,0.00,VWS V13.01,2013-05-14 19:22:00,
2013-05-14 15:27:00,59.0,16.8,29.03,SSW,202,0.0,0.0,19,0.00,,---,0.00,VWS V13.01,2013-05-14 19:27:00,
2013-05-14 15:32:00,59.0,16.8,29.03,SSW,202,0.0,0.0,19,0.00,,---,0.00,VWS V13.01,2013-05-14 19:32:00,
2013-05-14 15:37:00,59.0,16.8,29.06,SSW,202,0.0,0.0,19,0.00,,---,0.00,VWS V13.01,2013-05-14 19:37:00,
2013-05-14 15:42:00,59.5,17.3,29.06,SSW,202,0.0,0.0,19,0.00,,---,0.00,VWS V13.01,2013-05-14 19:42:00,
2013-05-14 15:47:00,59.7,17.4,29.06,SSW,202,0.0,0.0,19,0.00,,---,0.00,VWS V13.01,2013-05-14 19:47:00,
2013-05-14 15:52:00,59.9,17.6,29.03,SSW,202,0.0,0.0,19,0.00,,---,0.00,VWS V13.01,2013-05-14 19:52:00,
2013-05-14 15:57:00,60.1,17.7,29.03,SSW,202,0.0,0.0,19,0.00,,---,0.00,VWS V13.01,2013-05-14 19:57:00,
2013-05-14 16:02:00,60.4,18.0,29.03,SSW,202,0.0,0.0,19,0.00,,---,0.00,VWS V13.01,2013-05-14 20:02:00,
2013-05-14 16:07:00,61.0,18.5,29.03,SSW,202,0.0,0.0,19,0.00,,---,0.00,VWS V13.01,2013-05-14 20:07:00,
2013-05-14 16:12:00,62.2,19.5,29.03,SSW,202,0.0,0.0,19,0.00,,---,0.00,VWS V13.01,2013-05-14 20:12:00,
2013-05-14 16:17:00,63.0,18.8,29.03,NE,45,0.0,0.0,18,0.00,,---,0.00,VWS V13.01,2013-05-14 20:17:00,
2013-05-14 16:22:00,63.0,18.8,29.03,NE,45,0.0,0.0,18,0.00,,---,0.00,VWS V13.01,2013-05-14 20:22:00,
2013-05-14 16:28:00,63.5,19.3,29.03,NE,45,0.0,0.0,18,0.00,,---,0.00,VWS V13.01,2013-05-14 20:28:00,
2013-05-14 16:33:00,64.0,19.7,29.03,NE,45,0.0,0.0,18,0.00,,---,0.00,VWS V13.01,2013-05-14 20:33:00,
2013-05-14 16:38:00,65.1,20.6,29.03,NE,45,0.0,0.0,18,0.00,,---,0.00,VWS V13.01,2013-05-14 20:38:00,
2013-05-14 16:43:00,65.1,20.6,29.03,NE,45,0.0,0.0,18,0.00,,---,0.00,VWS V13.01,2013-05-14 20:43:00,
2013-05-14 16:48:00,63.9,19.6,29.03,NE,45,0.0,0.0,18,0.00,,---,0.00,VWS V13.01,2013-05-14 20:48:00,
2013-05-14 16:53:00,63.7,19.4,29.03,NE,45,0.0,0.0,18,0.00,,---,0.00,VWS V13.01,2013-05-14 20:53:00,
2013-05-14 16:58:00,62.2,19.5,29.03,NE,45,0.0,0.0,19,0.00,,---,0.00,VWS V13.01,2013-05-14 20:58:00,
2013-05-14 17:03:00,61.7,19.0,29.03,NE,45,0.0,0.0,19,0.00,,---,0.00,VWS V13.01,2013-05-14 21:03:00,
2013-05-14 17:08:00,61.0,18.5,29.03,NE,45,0.0,0.0,19,0.00,,---,0.00,VWS V13.01,2013-05-14 21:08:00,
2013-05-14 17:13:00,60.8,18.3,29.03,NE,45,0.0,0.0,19,0.00,,---,0.00,VWS V13.01,2013-05-14 21:13:00,
2013-05-14 17:18:00,60.6,18.2,29.03,NE,45,0.0,0.0,19,0.00,,---,0.00,VWS V13.01,2013-05-14 21:18:00,
2013-05-14 17:24:00,60.6,18.2,29.03,NE,45,0.0,0.0,19,0.00,,---,0.00,VWS V13.01,2013-05-14 21:24:00,
2013-05-14 17:29:00,60.6,18.2,29.03,NE,45,0.0,0.0,19,0.00,,---,0.00,VWS V13.01,2013-05-14 21:29:00,
2013-05-14 17:34:00,60.6,18.2,29.03,NE,45,0.0,0.0,19,0.00,,---,0.00,VWS V13.01,2013-05-14 21:34:00,
2013-05-14 17:39:00,60.6,18.2,29.00,NE,45,0.0,0.0,19,0.00,,---,0.00,VWS V13.01,2013-05-14 21:39:00,
2013-05-14 17:44:00,60.4,18.0,29.00,NE,45,0.0,0.0,19,0.00,,---,0.00,VWS V13.01,2013-05-14 21:44:00,
2013-05-14 17:49:00,60.4,18.0,29.00,NE,45,0.0,0.0,19,0.00,,---,0.00,VWS V13.01,2013-05-14 21:49:00,
2013-05-14 17:54:00,59.7,17.4,29.00,NE,45,0.0,0.0,19,0.00,,---,0.00,VWS V13.01,2013-05-14 21:54:00,
2013-05-14 17:59:00,59.7,17.4,29.00,NE,45,0.0,0.0,19,0.00,,---,0.00,VWS V13.01,2013-05-14 21:59:00,
2013-05-14 18:04:00,59.9,17.6,29.00,NE,45,0.0,0.0,19,0.00,,---,0.00,VWS V13.01,2013-05-14 22:04:00,
2013-05-14 18:09:00,59.7,20.8,29.00,NE,45,0.0,0.0,22,0.00,,---,0.00,VWS V13.01,2013-05-14 22:09:00,
2013-05-14 18:14:00,59.7,17.4,29.00,NE,45,0.0,0.0,19,0.00,,---,0.00,VWS V13.01,2013-05-14 22:14:00,
2013-05-14 18:20:00,59.7,20.8,29.00,NE,45,0.0,0.0,22,0.00,,---,0.00,VWS V13.01,2013-05-14 22:20:00,
2013-05-14 18:25:00,59.5,20.7,29.00,NE,45,0.0,0.0,22,0.00,,---,0.00,VWS V13.01,2013-05-14 22:25:00,
2013-05-14 18:30:00,59.4,23.6,29.00,NE,45,0.0,0.0,25,0.00,,---,0.00,VWS V13.01,2013-05-14 22:30:00,
2013-05-14 18:35:00,59.0,23.2,29.00,NE,45,0.0,0.0,25,0.00,,---,0.00,VWS V13.01,2013-05-14 22:35:00,
2013-05-14 18:40:00,58.6,23.9,28.97,NE,45,0.0,0.0,26,0.00,,---,0.00,VWS V13.01,2013-05-14 22:40:00,
2013-05-14 18:45:00,58.5,22.8,28.97,NE,45,0.0,0.0,25,0.00,,---,0.00,VWS V13.01,2013-05-14 22:45:00,
2013-05-14 18:50:00,58.5,25.5,28.97,NE,45,0.0,0.0,28,0.00,,---,0.00,VWS V13.01,2013-05-14 22:50:00,
2013-05-14 18:55:00,58.3,23.6,28.97,NE,45,0.0,0.0,26,0.00,,---,0.00,VWS V13.01,2013-05-14 22:55:00,
2013-05-14 19:00:00,58.1,23.4,28.97,NE,45,0.0,0.0,26,0.00,,---,0.00,VWS V13.01,2013-05-14 23:00:00,
2013-05-14 19:05:00,58.1,21.5,28.97,NE,45,0.0,0.0,24,0.00,,---,0.00,VWS V13.01,2013-05-14 23:05:00,
2013-05-14 19:10:00,58.1,22.5,28.97,NE,45,0.0,0.0,25,0.00,,---,0.00,VWS V13.01,2013-05-14 23:10:00,
2013-05-14 19:15:00,57.9,22.3,28.97,NE,45,0.0,0.0,25,0.00,,---,0.00,VWS V13.01,2013-05-14 23:15:00,
2013-05-14 19:20:00,57.9,22.3,28.97,NE,45,0.0,0.0,25,0.00,,---,0.00,VWS V13.01,2013-05-14 23:20:00,
2013-05-14 19:25:00,57.9,21.4,28.97,West,270,0.0,0.0,24,0.00,,---,0.00,VWS V13.01,2013-05-14 23:25:00,
2013-05-14 19:31:00,57.7,21.2,28.97,West,270,0.0,0.0,24,0.00,,---,0.00,VWS V13.01,2013-05-14 23:31:00,
2013-05-14 19:36:00,57.6,21.1,28.97,West,270,0.0,0.0,24,0.00,,---,0.00,VWS V13.01,2013-05-14 23:36:00,
2013-05-14 19:41:00,57.4,20.9,28.97,West,270,0.0,0.0,24,0.00,,---,0.00,VWS V13.01,2013-05-14 23:41:00,
2013-05-14 19:46:00,57.4,21.9,28.97,West,270,0.0,0.0,25,0.00,,---,0.00,VWS V13.01,2013-05-14 23:46:00,
2013-05-14 19:51:00,57.0,22.5,28.97,West,270,0.0,0.0,26,0.00,,---,0.00,VWS V13.01,2013-05-14 23:51:00,
2013-05-14 19:56:00,56.8,21.4,28.97,West,270,0.0,0.0,25,0.00,,---,0.00,VWS V13.01,2013-05-14 23:56:00,
2013-05-14 20:01:00,56.7,21.3,28.97,West,270,0.0,0.0,25,0.00,,---,0.00,VWS V13.01,2013-05-15 00:01:00,
2013-05-14 20:06:00,56.5,22.0,28.97,West,270,0.0,0.0,26,0.00,,---,0.00,VWS V13.01,2013-05-15 00:06:00,
2013-05-14 20:11:00,56.3,22.8,28.97,West,270,0.0,0.0,27,0.00,,---,0.00,VWS V13.01,2013-05-15 00:11:00,
2013-05-14 20:16:00,56.3,21.0,28.97,West,270,0.0,0.0,25,0.00,,---,0.00,VWS V13.01,2013-05-15 00:16:00,
2013-05-14 20:21:00,56.1,21.7,28.97,West,270,0.0,0.0,26,0.00,,---,0.00,VWS V13.01,2013-05-15 00:21:00,
2013-05-14 20:26:00,56.1,21.7,29.00,West,270,0.0,0.0,26,0.00,,---,0.00,VWS V13.01,2013-05-15 00:26:00,
2013-05-14 20:31:00,55.9,21.6,29.00,West,270,0.0,0.0,26,0.00,,---,0.00,VWS V13.01,2013-05-15 00:31:00,
2013-05-14 20:36:00,56.3,21.0,29.00,West,270,0.0,0.0,25,0.00,,---,0.00,VWS V13.01,2013-05-15 00:36:00,
2013-05-14 20:42:00,56.3,21.0,29.00,West,270,0.0,0.0,25,0.00,,---,0.00,VWS V13.01,2013-05-15 00:42:00,
2013-05-14 20:47:00,56.3,21.9,29.00,West,270,0.0,0.0,26,0.00,,---,0.00,VWS V13.01,2013-05-15 00:47:00,
2013-05-14 20:52:00,56.1,21.7,29.00,West,270,0.0,0.0,26,0.00,,---,0.00,VWS V13.01,2013-05-15 00:52:00,
2013-05-14 20:57:00,55.9,21.6,29.00,West,270,0.0,0.0,26,0.00,,---,0.00,VWS V13.01,2013-05-15 00:57:00,
2013-05-14 21:02:00,56.3,21.0,29.00,SW,225,0.0,0.0,25,0.00,,---,0.00,VWS V13.01,2013-05-15 01:02:00,
2013-05-14 21:07:00,56.1,20.8,29.00,SW,225,0.0,0.0,25,0.00,,---,0.00,VWS V13.01,2013-05-15 01:07:00,
2013-05-14 21:12:00,55.9,21.6,29.00,SW,225,0.0,0.0,26,0.00,,---,0.00,VWS V13.01,2013-05-15 01:12:00,
2013-05-14 21:17:00,55.9,21.6,29.00,SW,225,0.0,0.0,26,0.00,,---,0.00,VWS V13.01,2013-05-15 01:17:00,
2013-05-14 21:22:00,55.9,21.6,29.00,SW,225,0.0,0.0,26,0.00,,---,0.00,VWS V13.01,2013-05-15 01:22:00,
2013-05-14 21:27:00,55.9,20.6,29.00,SW,225,0.0,0.0,25,0.00,,---,0.00,VWS V13.01,2013-05-15 01:27:00,
2013-05-14 21:32:00,55.8,21.4,29.00,SW,225,0.0,0.0,26,0.00,,---,0.00,VWS V13.01,2013-05-15 01:32:00,
2013-05-14 21:38:00,55.4,22.0,29.00,SW,225,0.0,0.0,27,0.00,,---,0.00,VWS V13.01,2013-05-15 01:38:00,
2013-05-14 21:43:00,55.4,21.1,29.00,SW,225,0.0,0.0,26,0.00,,---,0.00,VWS V13.01,2013-05-15 01:43:00,
2013-05-14 21:48:00,55.8,20.5,29.00,SW,225,0.0,0.0,25,0.00,,---,0.00,VWS V13.01,2013-05-15 01:48:00,
2013-05-14 21:53:00,55.9,20.6,29.03,SW,225,0.0,0.0,25,0.00,,---,0.00,VWS V13.01,2013-05-15 01:53:00,
2013-05-14 21:58:00,55.6,20.3,29.03,SW,225,0.0,0.0,25,0.00,,---,0.00,VWS V13.01,2013-05-15 01:58:00,
2013-05-14 22:03:00,55.6,20.3,29.03,SW,225,0.0,0.0,25,0.00,,---,0.00,VWS V13.01,2013-05-15 02:03:00,
2013-05-14 22:08:00,55.6,20.3,29.03,SW,225,0.0,0.0,25,0.00,,---,0.00,VWS V13.01,2013-05-15 02:08:00,
2013-05-14 22:13:00,55.4,21.1,29.03,SW,225,0.0,0.0,26,0.00,,---,0.00,VWS V13.01,2013-05-15 02:13:00,
2013-05-14 22:19:00,55.4,21.1,29.03,SW,225,0.0,0.0,26,0.00,,---,0.00,VWS V13.01,2013-05-15 02:19:00,
2013-05-14 22:24:00,55.2,21.0,29.03,SW,225,0.0,0.0,26,0.00,,---,0.00,VWS V13.01,2013-05-15 02:24:00,
2013-05-14 22:29:00,55.2,21.0,29.03,SW,225,0.0,0.0,26,0.00,,---,0.00,VWS V13.01,2013-05-15 02:29:00,
2013-05-14 22:34:00,55.4,20.2,29.03,SW,225,0.0,0.0,25,0.00,,---,0.00,VWS V13.01,2013-05-15 02:34:00,
2013-05-14 22:39:00,55.2,21.0,29.03,SW,225,0.0,0.0,26,0.00,,---,0.00,VWS V13.01,2013-05-15 02:39:00,
2013-05-14 22:44:00,55.2,21.8,29.03,SW,225,0.0,0.0,27,0.00,,---,0.00,VWS V13.01,2013-05-15 02:44:00,
2013-05-14 22:49:00,55.0,21.7,29.03,SW,225,0.0,0.0,27,0.00,,---,0.00,VWS V13.01,2013-05-15 02:49:00,
2013-05-14 22:54:00,55.6,20.3,29.03,SW,225,0.0,0.0,25,0.00,,---,0.00,VWS V13.01,2013-05-15 02:54:00,
2013-05-14 22:59:00,55.4,22.0,29.03,SW,225,0.0,0.0,27,0.00,,---,0.00,VWS V13.01,2013-05-15 02:59:00,
2013-05-14 23:04:00,55.2,21.8,29.03,SW,225,0.0,0.0,27,0.00,,---,0.00,VWS V13.01,2013-05-15 03:04:00,
2013-05-14 23:09:00,55.0,21.7,29.00,SW,225,0.0,0.0,27,0.00,,---,0.00,VWS V13.01,2013-05-15 03:09:00,
2013-05-14 23:15:00,55.0,21.7,29.00,SW,225,0.0,0.0,27,0.00,,---,0.00,VWS V13.01,2013-05-15 03:15:00,
2013-05-14 23:20:00,55.0,22.5,29.00,SW,225,0.0,0.0,28,0.00,,---,0.00,VWS V13.01,2013-05-15 03:20:00,
2013-05-14 23:25:00,54.9,22.4,29.00,SW,225,0.0,0.0,28,0.00,,---,0.00,VWS V13.01,2013-05-15 03:25:00,
2013-05-14 23:30:00,54.7,22.2,29.00,SW,225,0.0,0.0,28,0.00,,---,0.00,VWS V13.01,2013-05-15 03:30:00,
2013-05-14 23:35:00,54.7,22.2,29.00,SW,225,0.0,0.0,28,0.00,,---,0.00,VWS V13.01,2013-05-15 03:35:00,
2013-05-14 23:40:00,54.7,22.2,29.00,SW,225,0.0,0.0,28,0.00,,---,0.00,VWS V13.01,2013-05-15 03:40:00,
2013-05-14 23:45:00,54.5,22.1,29.00,SW,225,0.0,0.0,28,0.00,,---,0.00,VWS V13.01,2013-05-15 03:45:00,
2013-05-14 23:50:00,54.5,22.9,29.00,SW,225,0.0,0.0,29,0.00,,---,0.00,VWS V13.01,2013-05-15 03:50:00,
2013-05-14 23:55:00,54.3,22.8,28.97,SW,225,0.0,0.0,29,0.00,,---,0.00,VWS V13.01,2013-05-15 03:55:00,